AA1FF Weather Reports


time (UTC)temp
C
wind
direction
speed
KPH
gust
KPH
rain 1hr
cm
rain 24hr
cm
rain mn
cm
humidity
%
barometer
mb
20260507072846 10 121 0.0 0.0 0.03 0.00 0.25 97 1008.0
20260507072344 10 279 1.6 3.2 0.20 0.00 0.25 97 1008.0
20260507071846 11 268 3.2 3.2 0.00 0.00 0.23 96 1008.0
20260507071344 11 24 1.6 1.6 0.23 0.00 0.23 96 1008.0
20260507070844 11 0 0.0 0.0 1.14 0.00 0.20 95 1008.0
20260507070346 11 264 4.8 4.8 0.10 0.00 0.15 94 1008.0
20260507065845 11 332 0.0 1.6 1.98 0.00 0.10 93 1007.0
20260507065343 11 276 4.8 4.8 0.00 0.00 0.00 93 1007.0
20260507064843 11 302 4.8 6.4 0.00 0.00 0.00 92 1007.0
20260507064344 11 330 3.2 3.2 0.00 0.00 0.00 92 1007.0
20260507063845 11 45 1.6 3.2 0.00 0.00 0.00 92 1007.0
20260507063346 11 0 0.0 0.0 0.00 0.00 0.00 90 1007.0
20260507062845 11 34 1.6 3.2 0.00 0.00 0.00 89 1007.0
20260507062346 11 296 3.2 3.2 0.00 0.00 0.00 89 1007.0
20260507061848 12 307 3.2 6.4 0.00 0.00 0.00 89 1007.0
20260507061345 12 243 1.6 3.2 0.00 0.00 0.00 88 1007.0
20260507060844 12 291 4.8 6.4 0.00 0.00 0.00 90 1007.0
20260507060346 12 298 3.2 3.2 0.00 0.00 0.00 89 1007.0
20260507055843 12 292 4.8 4.8 0.00 0.00 0.00 89 1007.0
20260507055344 12 258 4.8 4.8 0.00 0.00 0.00 89 1007.0
20260507054845 12 243 4.8 6.4 0.00 0.00 0.00 90 1007.0
20260507054345 12 263 4.8 4.8 0.00 0.00 0.00 91 1007.0
20260507053846 12 285 1.6 4.8 0.00 0.00 0.00 92 1007.0
20260507053343 12 283 1.6 3.2 0.00 0.00 0.00 93 1007.0
20260507052844 12 233 3.2 4.8 0.00 0.00 0.00 94 1007.0
20260507052345 12 222 3.2 3.2 0.00 0.00 0.00 94 1007.0
20260507051844 13 262 3.2 3.2 0.00 0.00 0.00 94 1007.0
20260507051343 13 197 3.2 3.2 0.00 0.00 0.00 94 1007.0
20260507050844 13 172 0.0 0.0 0.00 0.00 0.00 94 1008.0
20260507050346 13 251 1.6 3.2 0.00 0.00 0.00 94 1008.0
20260507045845 13 247 3.2 3.2 0.00 0.00 0.00 94 1007.0
20260507045352 13 260 0.0 0.0 0.00 0.00 0.00 93 1007.0
20260507044844 13 251 0.0 1.6 0.00 0.00 0.00 94 1007.0
20260507044343 13 289 3.2 4.8 0.00 0.00 0.00 94 1007.0
20260507043843 13 98 1.6 3.2 0.00 0.00 0.00 94 1007.0
20260507043343 13 280 0.0 0.0 0.00 0.00 0.00 93 1007.0
20260507042844 13 311 3.2 4.8 0.00 0.00 0.00 93 1007.0
20260507042343 13 158 0.0 0.0 0.00 0.00 0.00 93 1007.0
20260507041844 13 223 3.2 3.2 0.00 0.00 0.00 93 1007.0
20260507041344 13 234 1.6 4.8 0.00 0.00 0.00 93 1007.0
20260507040844 13 269 1.6 3.2 0.00 0.00 0.00 93 1007.0
20260507040348 13 264 3.2 4.8 0.00 0.00 0.00 93 1007.0
20260507035845 13 191 1.6 3.2 0.00 0.00 0.25 93 1007.0
20260507035348 14 273 1.6 3.2 0.00 0.00 0.25 93 1007.0
20260507034845 14 243 3.2 8.0 0.00 0.00 0.25 93 1007.0
20260507034346 14 262 4.8 9.7 0.00 0.00 0.25 95 1007.0
20260507033843 14 209 11.3 14.5 0.00 0.00 0.25 98 1007.0
20260507033343 14 216 0.0 1.6 0.00 0.00 0.25 100 1007.0
20260507032844 14 125 1.6 3.2 0.00 0.00 0.25 99 1007.0
20260507032343 14 0 0.0 0.0 0.00 0.00 0.25 100 1007.0
20260507031844 14 304 3.2 4.8 0.00 0.00 0.25 100 1007.0
20260507031345 14 303 1.6 3.2 0.00 0.00 0.25 100 1007.0
20260507030845 14 78 1.6 1.6 0.00 0.00 0.25 100 1007.0
20260507030346 14 311 0.0 1.6 0.00 0.00 0.25 100 1007.0
20260507025845 14 92 1.6 3.2 0.00 0.00 0.25 100 1007.0
20260507025345 14 56 0.0 1.6 0.00 0.00 0.25 100 1007.0
20260507024844 14 0 0.0 0.0 0.00 0.00 0.25 100 1007.0
20260507024343 14 294 1.6 4.8 0.00 0.00 0.25 100 1007.0
20260507023845 14 101 0.0 0.0 0.00 0.00 0.25 100 1007.0
20260507023345 14 222 1.6 3.2 0.00 0.00 0.25 100 1007.0
20260507022846 14 39 1.6 3.2 0.00 0.00 0.25 100 1007.0
20260507022345 14 159 3.2 3.2 0.00 0.00 0.25 100 1007.0
20260507021845 14 205 0.0 1.6 0.00 0.00 0.25 100 1007.0
20260507021343 14 87 1.6 3.2 0.00 0.00 0.25 100 1007.0
20260507020845 14 95 0.0 1.6 0.00 0.00 0.25 100 1007.0
20260507020344 14 0 0.0 0.0 0.00 0.00 0.25 100 1007.0
20260507015845 14 124 6.4 8.0 0.00 0.00 0.25 99 1007.0
20260507015345 14 177 0.0 0.0 0.00 0.00 0.25 99 1007.0
20260507014845 13 214 3.2 4.8 0.00 0.00 0.25 99 1007.0
20260507014345 13 223 1.6 3.2 0.00 0.00 0.25 99 1007.0
20260507013845 13 134 0.0 1.6 0.00 0.00 0.25 100 1007.0
20260507013346 13 104 3.2 3.2 0.00 0.00 0.25 100 1007.0
20260507012852 13 205 3.2 4.8 0.00 0.00 0.25 100 1007.0
20260507012344 13 140 3.2 4.8 0.00 0.00 0.25 100 1007.0
20260507011843 13 187 3.2 4.8 0.00 0.00 0.25 100 1007.0
20260507011345 13 122 1.6 3.2 0.00 0.00 0.25 100 1007.0
20260507010845 13 124 1.6 3.2 0.00 0.00 0.25 100 1007.0
20260507010346 13 68 3.2 3.2 0.00 0.00 0.25 100 1007.0
20260507005843 13 128 3.2 3.2 0.00 0.00 0.25 100 1007.0
20260507005347 13 127 1.6 3.2 0.00 0.00 0.25 100 1007.0
20260507004845 13 153 0.0 1.6 0.00 0.00 0.25 100 1007.0
20260507004345 13 234 3.2 4.8 0.00 0.00 0.25 100 1007.0
20260507003844 13 217 1.6 3.2 0.00 0.00 0.25 100 1007.0
20260507003346 13 284 3.2 6.4 0.00 0.00 0.25 100 1007.0
20260507002845 13 164 8.0 11.3 0.00 0.00 0.25 100 1007.0
20260507002345 13 230 3.2 4.8 0.00 0.00 0.25 100 1007.0
20260507001845 13 90 1.6 4.8 0.00 0.00 0.25 100 1007.0
20260507001343 13 167 3.2 4.8 0.00 0.00 0.25 100 1007.0
20260507000845 13 119 0.0 0.0 0.00 0.00 0.25 99 1007.0
20260507000345 13 219 3.2 6.4 0.00 0.00 0.25 99 1007.0
20260506235846 13 21 1.6 3.2 0.00 0.00 0.25 99 1007.0
20260506235345 13 154 3.2 4.8 0.00 0.00 0.25 99 1007.0
20260506234845 13 93 3.2 4.8 0.00 0.00 0.25 99 1007.0
20260506234345 13 171 3.2 4.8 0.00 0.00 0.25 99 1007.0
20260506233845 13 125 3.2 4.8 0.00 0.00 0.25 99 1007.0
20260506233346 13 138 1.6 3.2 0.00 0.00 0.25 99 1007.0
20260506232844 13 224 4.8 6.4 0.00 0.00 0.25 99 1007.0
20260506232343 13 40 3.2 3.2 0.00 0.00 0.25 99 1007.0
20260506231843 13 153 3.2 4.8 0.00 0.00 0.25 99 1007.0
20260506231344 13 338 1.6 4.8 0.00 0.00 0.25 99 1007.0
20260506230844 13 148 3.2 4.8 0.00 0.00 0.25 99 1007.0
20260506230346 13 62 3.2 3.2 0.00 0.00 0.25 99 1007.0
20260506225843 13 120 3.2 3.2 0.00 0.00 0.25 99 1007.0
20260506225345 14 112 1.6 4.8 0.00 0.00 0.25 99 1007.0
20260506224845 14 275 3.2 3.2 0.00 0.00 0.25 99 1007.0
20260506224344 14 91 3.2 3.2 0.00 0.00 0.25 99 1007.0
20260506223844 14 47 1.6 6.4 0.00 0.00 0.25 99 1007.0
20260506223346 14 0 0.0 0.0 0.00 0.00 0.25 99 1007.0
20260506222844 14 98 1.6 3.2 0.00 0.00 0.25 99 1007.0
20260506222346 14 34 1.6 3.2 0.00 0.00 0.25 99 1007.0
20260506221843 14 101 6.4 6.4 0.00 0.00 0.25 99 1007.0
20260506221343 13 340 0.0 1.6 0.00 0.00 0.25 99 1007.0
20260506220845 13 225 3.2 6.4 0.00 0.00 0.25 99 1007.0
20260506220345 13 94 4.8 6.4 0.00 0.00 0.25 99 1007.0
20260506215845 14 84 8.0 12.9 0.00 0.00 0.25 99 1007.0
20260506215343 13 91 3.2 3.2 0.00 0.00 0.25 99 1007.0
20260506214845 13 180 1.6 3.2 0.00 0.00 0.25 99 1007.0
20260506214343 14 252 1.6 3.2 0.00 0.00 0.25 99 1007.0
20260506213845 14 82 3.2 4.8 0.00 0.00 0.25 99 1007.0
20260506213345 14 121 4.8 6.4 0.00 0.00 0.25 99 1007.0
20260506212844 14 105 3.2 3.2 0.00 0.00 0.25 98 1007.0
20260506212344 14 0 0.0 0.0 0.00 0.00 0.25 98 1007.0
20260506211845 14 211 3.2 3.2 0.00 0.00 0.25 98 1007.0
20260506211345 14 126 3.2 4.8 0.00 0.00 0.25 98 1007.0
20260506210846 14 90 0.0 3.2 0.00 0.00 0.25 98 1007.0
20260506210345 14 231 1.6 3.2 0.00 0.00 0.25 98 1007.0
20260506205357 14 103 3.2 4.8 0.00 0.00 0.25 98 1007.0
20260506204847 14 3 1.6 3.2 0.00 0.00 0.25 98 1008.0
20260506204347 14 209 0.0 1.6 0.00 0.00 0.25 98 1007.0
20260506203845 14 137 3.2 3.2 0.00 0.00 0.25 98 1007.0
20260506203346 14 71 4.8 6.4 0.00 0.00 0.25 97 1007.0
20260506202845 14 88 1.6 3.2 0.00 0.00 0.25 97 1007.0
20260506202345 14 283 1.6 6.4 0.00 0.00 0.25 97 1008.0
20260506201847 14 85 6.4 8.0 0.03 0.00 0.25 97 1008.0
20260506201348 14 42 1.6 3.2 0.00 0.00 0.25 97 1008.0
20260506200846 14 228 3.2 8.0 0.03 0.00 0.23 97 1008.0
20260506200346 14 276 0.0 1.6 0.03 0.00 0.23 97 1008.0
20260506195845 14 82 3.2 4.8 0.08 0.00 0.23 97 1008.0
20260506195343 14 119 4.8 9.7 0.08 0.00 0.23 97 1008.0
20260506194845 14 149 3.2 6.4 0.00 0.00 0.23 96 1008.0
20260506194346 14 97 3.2 8.0 0.00 0.00 0.23 96 1008.0
20260506193845 14 47 6.4 8.0 0.00 0.00 0.23 96 1008.0
20260506193346 14 226 3.2 6.4 0.05 0.00 0.23 96 1008.0
20260506192843 14 136 3.2 6.4 0.03 0.00 0.23 96 1008.0
20260506192348 14 157 4.8 9.7 0.03 0.00 0.23 95 1008.0
20260506191357 14 206 3.2 6.4 0.18 0.00 0.20 94 1008.0
20260506190845 14 202 3.2 4.8 0.15 0.00 0.18 94 1008.0
20260506190347 14 166 1.6 3.2 0.10 0.00 0.15 94 1008.0
20260506185844 15 85 4.8 11.3 0.25 0.00 0.15 93 1008.0
20260506185347 15 115 1.6 3.2 0.15 0.00 0.13 92 1008.0
20260506184845 15 127 3.2 6.4 0.13 0.00 0.13 92 1008.0
20260506184347 15 119 1.6 4.8 0.10 0.00 0.10 91 1008.0
20260506183846 15 126 4.8 8.0 0.10 0.00 0.10 90 1008.0
20260506183346 15 176 1.6 4.8 0.05 0.00 0.08 89 1008.0
20260506182847 15 98 3.2 8.0 0.10 0.00 0.08 88 1009.0
20260506182347 16 93 3.2 9.7 0.13 0.00 0.08 87 1009.0
20260506181845 16 173 1.6 3.2 0.20 0.00 0.05 85 1009.0
20260506181345 16 298 3.2 4.8 0.08 0.00 0.05 85 1009.0
20260506180846 16 172 4.8 8.0 0.15 0.00 0.03 81 1009.0
20260506180343 17 155 3.2 4.8 0.15 0.00 0.03 79 1009.0
20260506175846 17 144 4.8 9.7 0.03 0.00 0.00 76 1009.0
20260506175345 17 161 4.8 8.0 0.13 0.00 0.00 75 1009.0
20260506174845 17 121 3.2 6.4 0.00 0.00 0.00 73 1009.0
20260506174346 18 212 6.4 12.9 0.00 0.00 0.00 72 1009.0
20260506173846 18 108 3.2 6.4 0.00 0.00 0.00 73 1009.0
20260506173345 18 121 8.0 12.9 0.00 0.00 0.00 71 1009.0
20260506172846 18 91 8.0 14.5 0.00 0.00 0.00 70 1009.0
20260506172345 18 163 4.8 8.0 0.00 0.00 0.00 69 1009.0
20260506171846 18 179 3.2 8.0 0.00 0.00 0.00 68 1009.0
20260506171345 19 202 4.8 9.7 0.00 0.00 0.00 67 1009.0
20260506170846 19 111 6.4 14.5 0.00 0.00 0.00 66 1009.0
20260506170346 20 69 4.8 9.7 0.00 0.00 0.00 66 1009.0
20260506165849 20 129 6.4 9.7 0.00 0.00 0.00 63 1009.0
20260506165345 20 229 6.4 9.7 0.00 0.00 0.00 65 1009.0
20260506164845 20 190 6.4 11.3 0.00 0.00 0.00 65 1009.0
20260506164345 20 133 3.2 4.8 0.00 0.00 0.00 65 1009.0
20260506163849 20 150 4.8 6.4 0.00 0.00 0.00 64 1009.0
20260506163345 20 80 8.0 14.5 0.00 0.00 0.00 63 1009.0
20260506162846 20 73 8.0 14.5 0.00 0.00 0.00 62 1009.0
20260506162345 20 56 4.8 12.9 0.00 0.00 0.00 62 1009.0
20260506161845 20 199 9.7 16.1 0.00 0.00 0.00 63 1009.0
20260506161346 20 116 9.7 17.7 0.00 0.00 0.00 62 1010.0
20260506160844 20 93 6.4 11.3 0.00 0.00 0.00 63 1009.0
20260506160346 20 212 6.4 9.7 0.00 0.00 0.00 61 1010.0
20260506155845 20 188 4.8 8.0 0.00 0.00 0.00 61 1009.0
20260506155344 20 177 4.8 17.7 0.00 0.00 0.00 62 1010.0
20260506154845 20 189 8.0 12.9 0.00 0.00 0.00 62 1010.0
20260506154346 20 88 3.2 6.4 0.00 0.00 0.00 63 1010.0
20260506153843 20 86 6.4 11.3 0.00 0.00 0.00 62 1010.0
20260506153345 20 73 3.2 6.4 0.00 0.00 0.00 60 1010.0